Stations météo

réclame
Mon MeteoGroup
P11-B, Pays-Bas (6203): Température de l'air & dewpoint: 09.12.2019 23:00:00 - 15.12.2019 23:00:00 (CET)P11-B, Pays-Bas (6203): Vitesse du vent & gusts: 09.12.2019 23:00:00 - 15.12.2019 23:00:00 (CET)P11-B, Pays-Bas (6203): Direction du vent: 09.12.2019 23:00:00 - 15.12.2019 23:00:00 (CET)P11-B, Pays-Bas (6203): reduced air pressure: 09.12.2019 23:00:00 - 15.12.2019 23:00:00 (CET)P11-B, Pays-Bas (6203): visibility: 09.12.2019 23:00:00 - 15.12.2019 23:00:00 (CET)
Date & Time tt [°C] td [°C] ff [km/h] ff [knt] fx [km/h] fx [knt] dd ppp [hPa] vv [km]
15.12.2019 23:00:00 9,0 6,0 54 29 - - - 1001,2 10
15.12.2019 22:00:00 9,5 6,2 48 26 54 29 - 1000,8 10
15.12.2019 21:00:00 10,2 5,7 52 28 58 31 - 1001,0 10
15.12.2019 20:00:00 10,3 5,5 54 29 54 29 - 1000,6 10
15.12.2019 19:00:00 10,2 5,4 55 30 61 33 - 999,9 10
15.12.2019 18:00:00 10,1 4,4 54 29 58 31 - 999,6 10
15.12.2019 17:00:00 9,9 4,2 55 30 58 31 - 998,9 5
15.12.2019 16:00:00 9,6 4,8 54 29 61 33 - 997,7 5
15.12.2019 15:00:00 9,6 4,6 54 29 65 35 - 996,6 4,6
15.12.2019 14:00:00 9,4 4,3 63 34 68 37 - 996,6 3,1
15.12.2019 13:00:00 9,4 4,2 67 36 68 37 - 996,1 2,1
15.12.2019 12:00:00 9,5 3,9 68 37 72 39 - 994,9 2,4
15.12.2019 11:00:00 9,3 3,1 74 40 83 45 - 994,6 2,5
15.12.2019 10:00:00 8,9 2,9 80 43 86 47 - 993,4 1,2
15.12.2019 09:00:00 8,6 3,1 76 41 83 45 - 991,8 2,7
15.12.2019 08:00:00 8,4 2,1 78 42 90 49 - 990,0 2,9
15.12.2019 07:00:00 8,6 3,3 81 44 94 51 - 988,7 10
15.12.2019 06:00:00 9,1 3,0 78 42 90 49 - 987,5 10
15.12.2019 05:00:00 9,2 4,8 67 36 76 41 - 986,7 10
15.12.2019 04:00:00 7,7 5,6 54 29 83 45 - 985,5 8
15.12.2019 03:00:00 9,3 6,2 74 40 79 43 - 983,8 10
15.12.2019 02:00:00 8,7 5,0 67 36 68 37 - 986,2 10
15.12.2019 01:00:00 8,7 5,6 57 31 61 33 - 988,6 10
15.12.2019 00:00:00 8,8 5,5 55 30 58 31 - 990,1 9
14.12.2019 23:00:00 9,5 4,4 46 25 50 27 - 992,2 10
14.12.2019 22:00:00 9,0 2,7 52 28 54 29 - 993,3 10
14.12.2019 21:00:00 8,7 1,6 59 32 72 39 - 994,1 3,1
14.12.2019 20:00:00 8,4 0,1 68 37 72 39 - 993,4 2,9
14.12.2019 19:00:00 7,8 -0,4 68 37 76 41 - 992,8 9
14.12.2019 18:00:00 7,7 -0,6 70 38 83 45 - 991,9 10
14.12.2019 17:00:00 7,6 1,6 72 39 76 41 - 990,5 10
14.12.2019 16:00:00 7,0 2,3 65 35 79 43 - 988,6 10
14.12.2019 15:00:00 6,8 3,3 46 25 58 31 - 987,9 10
14.12.2019 14:00:00 7,9 2,1 59 32 65 35 - 987,4 3,1
14.12.2019 13:00:00 8,9 3,8 65 35 72 39 - 987,5 3,6
14.12.2019 12:00:00 8,1 0,3 68 37 76 41 - 986,9 10
14.12.2019 11:00:00 7,8 1,6 72 39 83 45 - 986,3 10
14.12.2019 10:00:00 7,5 1,8 72 39 83 45 - 985,4 10
14.12.2019 09:00:00 7,5 1,8 68 37 76 41 - 984,2 10
14.12.2019 08:00:00 7,5 3,2 67 36 72 39 - 983,2 10
14.12.2019 07:00:00 7,8 3,5 61 33 68 37 - 982,0 10
14.12.2019 06:00:00 8,0 3,0 55 30 65 35 - 981,3 10
14.12.2019 05:00:00 8,3 3,6 54 29 58 31 - 980,2 10
14.12.2019 04:00:00 8,0 1,7 39 21 43 23 - 979,6 10
14.12.2019 03:00:00 8,3 1,6 39 21 47 25 - 979,5 10
14.12.2019 02:00:00 8,5 2,2 48 26 50 27 - 979,2 10
14.12.2019 01:00:00 8,6 3,1 50 27 58 31 - 979,6 10
14.12.2019 00:00:00 8,5 2,7 59 32 61 33 - 980,2 10
13.12.2019 23:00:00 8,5 3,0 54 29 58 31 - 980,2 10
13.12.2019 22:00:00 8,5 1,9 63 34 68 37 - 980,9 10
13.12.2019 21:00:00 8,8 2,9 61 33 68 37 - 981,3 10
13.12.2019 20:00:00 9,0 3,1 50 27 61 33 - 981,1 18
13.12.2019 19:00:00 9,1 3,7 59 32 61 33 - 981,2 10
13.12.2019 18:00:00 9,1 4,0 54 29 58 31 - 981,0 10
13.12.2019 17:00:00 8,8 4,0 50 27 58 31 - 980,3 10
13.12.2019 16:00:00 8,7 4,6 48 26 58 31 - 979,7 10
13.12.2019 15:00:00 8,4 4,7 39 21 50 27 - 978,6 10
13.12.2019 14:00:00 8,4 5,0 35 19 40 21 - 977,8 10
13.12.2019 13:00:00 8,4 4,5 42 23 47 25 - 976,9 10
13.12.2019 12:00:00 8,9 5,7 13 7 36 19 - 975,9 10
13.12.2019 11:00:00 7,0 5,9 4 2 7 4 - 975,1 7
13.12.2019 10:00:00 7,0 5,5 9 5 14 8 - 973,8 10
13.12.2019 09:00:00 7,0 5,3 15 8 18 10 - 972,5 10
13.12.2019 08:00:00 7,3 5,4 21 11 25 14 - 971,4 10
13.12.2019 07:00:00 7,2 5,5 28 15 36 19 - 970,6 10
13.12.2019 06:00:00 7,3 5,9 41 22 47 25 - 970,3 10
13.12.2019 05:00:00 7,3 6,0 48 26 54 29 - 970,2 10
13.12.2019 04:00:00 7,3 6,1 55 30 61 33 - 970,9 10
13.12.2019 03:00:00 7,2 6,3 67 36 72 39 - 970,8 8
13.12.2019 02:00:00 8,7 7,1 36 19 58 31 - 972,0 13
13.12.2019 01:00:00 9,1 7,4 59 32 90 49 - 972,6 5
13.12.2019 00:00:00 6,9 6,0 87 47 90 49 - 971,1 4,8
12.12.2019 23:00:00 6,7 5,5 85 46 86 47 - 973,9 7
12.12.2019 22:00:00 7,0 4,9 80 43 79 43 - 976,0 9
12.12.2019 21:00:00 6,6 5,1 76 41 79 43 - 978,6 8
12.12.2019 20:00:00 6,3 4,9 80 43 83 45 - 980,4 9
12.12.2019 19:00:00 6,6 4,5 80 43 83 45 - 981,6 10
12.12.2019 18:00:00 7,0 4,5 80 43 76 41 - 984,6 10
12.12.2019 17:00:00 6,4 4,2 76 41 76 41 - 985,5 7
12.12.2019 16:00:00 6,5 3,8 67 36 68 37 - 987,9 10
12.12.2019 15:00:00 6,7 3,6 68 37 65 35 - 989,8 10
12.12.2019 14:00:00 6,6 3,9 59 32 61 33 - 991,7 10
12.12.2019 13:00:00 7,1 4,5 55 30 58 31 - 993,7 10
12.12.2019 12:00:00 7,1 3,3 55 30 58 31 - 995,2 10
12.12.2019 11:00:00 7,5 1,2 41 22 47 25 - 996,7 10
12.12.2019 10:00:00 7,2 1,9 35 19 40 21 - 998,2 10
12.12.2019 09:00:00 6,9 1,5 34 18 36 19 - 998,7 10
12.12.2019 08:00:00 6,8 2,2 34 18 36 19 - 999,4 10
12.12.2019 07:00:00 6,6 1,6 28 15 32 18 - 1000,1 10
12.12.2019 06:00:00 6,7 2,2 29 16 32 18 - 1000,2 10
12.12.2019 05:00:00 6,5 2,1 28 15 32 18 - 1000,2 10
12.12.2019 04:00:00 6,4 2,7 31 17 32 18 - 1000,4 10
12.12.2019 03:00:00 6,6 2,7 31 17 36 19 - 1000,4 10
12.12.2019 02:00:00 6,7 2,9 34 18 40 21 - 1000,2 10
12.12.2019 01:00:00 7,1 3,5 35 19 40 21 - 1000,2 10
12.12.2019 00:00:00 7,9 4,0 37 20 47 25 - 1000,1 10
11.12.2019 23:00:00 8,3 4,0 42 23 47 25 - 1000,0 10
11.12.2019 22:00:00 7,9 4,8 50 27 50 27 - 1000,2 10
11.12.2019 21:00:00 7,5 4,6 39 21 50 27 - 1000,5 10
11.12.2019 20:00:00 7,2 3,2 50 27 65 35 - 1000,6 10
11.12.2019 19:00:00 8,7 5,4 44 24 47 25 - 1000,9 10
11.12.2019 18:00:00 8,5 5,0 44 24 47 25 - 1001,4 10
11.12.2019 17:00:00 9,2 3,0 37 20 40 21 - 1002,0 10
11.12.2019 16:00:00 8,9 3,3 37 20 36 19 - 1002,6 10
11.12.2019 15:00:00 8,7 2,5 31 17 32 18 - 1003,2 10
11.12.2019 14:00:00 8,5 2,9 31 17 32 18 - 1003,9 10
11.12.2019 13:00:00 8,3 3,1 31 17 40 21 - 1004,8 10
11.12.2019 12:00:00 8,3 3,4 34 18 32 18 - 1005,4 10
11.12.2019 11:00:00 8,4 3,2 29 16 32 18 - 1006,2 10
11.12.2019 10:00:00 8,4 2,6 28 15 29 16 - 1006,6 10
11.12.2019 09:00:00 8,2 3,1 24 13 29 16 - 1006,8 10
11.12.2019 08:00:00 8,4 3,1 28 15 32 18 - 1007,0 10
11.12.2019 07:00:00 8,5 3,3 29 16 36 19 - 1006,9 10
11.12.2019 06:00:00 8,9 3,0 35 19 43 23 - 1006,9 10
11.12.2019 05:00:00 9,0 3,1 41 22 47 25 - 1006,7 10
11.12.2019 04:00:00 9,7 5,2 44 24 47 25 - 1006,7 10
11.12.2019 03:00:00 10,1 5,4 46 25 50 27 - 1006,2 10
11.12.2019 02:00:00 9,8 7,6 46 25 58 31 - 1006,1 10
11.12.2019 01:00:00 9,9 9,0 78 42 79 43 - 1005,6 3,8
11.12.2019 00:00:00 9,6 7,5 76 41 86 47 - 1002,9 9
10.12.2019 23:00:00 9,6 7,0 74 40 86 47 - 1003,0 10
10.12.2019 22:00:00 9,1 6,5 78 42 90 49 - 1003,4 10
10.12.2019 21:00:00 8,9 5,8 81 44 90 49 - 1003,7 10
10.12.2019 20:00:00 8,9 5,7 81 44 90 49 - 1004,6 10
10.12.2019 19:00:00 8,7 5,6 83 45 90 49 - 1005,9 10
10.12.2019 18:00:00 8,6 5,1 85 46 94 51 - 1007,6 10
10.12.2019 17:00:00 8,3 4,6 87 47 90 49 - 1008,0 10
10.12.2019 16:00:00 7,8 5,4 74 40 83 45 - 1010,0 6
10.12.2019 15:00:00 8,3 4,7 74 40 79 43 - 1011,8 10
10.12.2019 14:00:00 8,2 4,6 70 38 72 39 - 1013,6 10
10.12.2019 13:00:00 8,2 4,2 65 35 68 37 - 1015,1 10
10.12.2019 12:00:00 8,2 4,2 65 35 65 35 - 1017,1 10
10.12.2019 11:00:00 8,4 4,4 54 29 61 33 - 1018,6 10
10.12.2019 10:00:00 8,3 3,8 48 26 54 29 - 1020,2 10
10.12.2019 09:00:00 8,4 2,4 50 27 54 29 - 1020,7 10
10.12.2019 08:00:00 8,1 1,0 39 21 43 23 - 1021,7 10
10.12.2019 07:00:00 7,9 1,1 34 18 36 19 - 1022,1 10
10.12.2019 06:00:00 8,0 0,0 26 14 29 16 - 1022,9 10
10.12.2019 05:00:00 7,5 0,6 21 11 25 14 - 1023,5 10
10.12.2019 04:00:00 7,6 1,1 18 10 29 16 - 1023,5 10
10.12.2019 03:00:00 7,8 2,6 29 16 32 18 - 1023,2 10
10.12.2019 02:00:00 8,0 2,8 26 14 32 18 - 1022,7 10
10.12.2019 01:00:00 8,3 2,4 21 11 36 19 - 1022,4 10
10.12.2019 00:00:00 8,3 0,4 29 16 58 31 - 1021,9 10
09.12.2019 23:00:00 8,0 2,2 41 22 58 31 - 1021,1 8

tt = Température de l'air
td = dewpoint
ff = Vitesse du vent
fx = gusts
dd = Direction du vent
ppp = reduced air pressure
vv = visibility

stations d'obs. à proximité